This is the latest recevied weather packets stored in our database for station/object LZ1HCO-25. If no packets are shown the sender has not sent any weather packets the latest 1 day(s).
| Time | Temp. | Humidity | Pressure | Rain* | Wind** | Luminosity | Snow |
|---|---|---|---|---|---|---|---|
| 1778093367 | 17.22° C | 99% | 967 hPa | - | - | 0 W/m² | - |
| 1778092433 | 17.22° C | 99% | 967 hPa | - | - | 0 W/m² | - |
| 1778091810 | 17.78° C | 99% | 966 hPa | - | - | 0 W/m² | - |
| 1778090876 | 18.33° C | 99% | 966 hPa | - | - | 0 W/m² | - |
| 1778089942 | 18.89° C | 99% | 966 hPa | - | - | 0 W/m² | - |
| 1778089008 | 18.89° C | 99% | 966 hPa | - | - | 0 W/m² | - |
| 1778088385 | 20° C | 99% | 966 hPa | - | - | 0 W/m² | - |
| 1778088074 | 20.56° C | 99% | 966 hPa | - | - | 0 W/m² | - |
| 1778086517 | 22.22° C | 82% | 966 hPa | - | - | 0 W/m² | - |
| 1778085583 | 23.33° C | 62% | 965 hPa | - | - | 0 W/m² | - |
| 1778083092 | 23.89° C | 55% | 965 hPa | - | - | 0 W/m² | - |
| 1778082158 | 23.33° C | 55% | 965 hPa | - | - | 0 W/m² | - |
| 1778081535 | 23.33° C | 53% | 965 hPa | - | - | 0 W/m² | - |
| 1778080601 | 24.44° C | 52% | 966 hPa | - | - | 0 W/m² | - |
| 1778079978 | 23.89° C | 51% | 966 hPa | - | - | 0 W/m² | - |
| 1778079667 | 24.44° C | 50% | 966 hPa | - | - | 0 W/m² | - |
| 1778078733 | 25° C | 51% | 966 hPa | - | - | 0 W/m² | - |
| 1778078110 | 25.56° C | 50% | 966 hPa | - | - | 0 W/m² | - |
| 1778077176 | 25° C | 52% | 966 hPa | - | - | 0 W/m² | - |
| 1778076242 | 23.89° C | 53% | 966 hPa | - | - | 0 W/m² | - |
| 1778075308 | 24.44° C | 54% | 966 hPa | - | - | 0 W/m² | - |
| 1778074685 | 24.44° C | 55% | 966 hPa | - | - | 0 W/m² | - |
| 1778073751 | 26.11° C | 53% | 966 hPa | - | - | 0 W/m² | - |
| 1778072987 | 25° C | 51% | 966 hPa | - | - | 0 W/m² | - |
| 1778072053 | 26.67° C | 48% | 966 hPa | - | - | 0 W/m² | - |
* Rain since midnight (hover to see other rain measurements)
** Current wind speed in m/s (hover to see current wind gust speed)